LEMUR-2-DULY (43745 NORAD) Tracking and Keplerian Element Data

This shows tracking and keplerian element data for the satellite.

Feedback or suggestion? Click here.




ElementValue
Catalog43745
NameLEMUR-2-DULY
Epoch Orbit457
Epoch Day363.13192774
Epoch Year2018
RAAN68.1807
Inclination97.4821
Eccentricity0.0020424
Argument of Perigee218.1837
Mean Anonmoly225.447
Mean Motion15.26656728
Decay Rate1.752E-05
L11 43745U 18096AC 18363.13192774 .00001752 00000-0 69336-4 0 9998
L22 43745 97.4821 68.1807 0020424 218.1837 225.4470 15.26656728 4576

Live tracking and technical data element details for LEMUR-2-DULY (NORAD 43745). LEMUR-2-DULY can be tracked NOW for your location showing map with azimuth and elevation plus other details from your city location.

Track the satellite on the map from your city or location and see movement details for azimuth, elevation, latitude, longitude, range, height, and movement on the map or in text.







IsCatalogInMostPopularTable: catalog: 43745, numindb: 55
Update: records affected: 1



GetName: 43745 LEMUR-2-DULY

Hit Count: updated at: Wed, 24 Apr 2019 18:07:41 GMT